User: anonymous   Login
Location: Unspecified
(0.0000°N, 0.0000°E)
Time: 23:11:31
(UTC+00:00)
Language:

USA 271 - Orbit

View from above orbital plane
View from above orbital plane
View from above satellite
View from above satellite

Ground track
Ground track

The orbit data is extracted from the following two-line orbital elements,

1 41745U 16052B   17184.59796296 0.00000000  00000-0  00000-0 0    02
2 41745   0.2660  88.4220 0000850 359.0090   0.8908  1.00537210    04
Epoch (UTC): 03 July 2017 14:21:04
Eccentricity: 0.0000850
inclination: 0.2660°
perigee height: 35708 km
apogee height: 35715 km
right ascension of ascending node: 88.4220°
argument of perigee: 359.0090°
revolutions per day: 1.00537210
mean anomaly at epoch: 0.8908°
orbit number at epoch: 0

The dashed part of the orbit path shows where the satellite is in the earth's shadow,  

DLR